Location: Alfords
(31.4624°N, 83.9238°W)
Time: 13:04:22
(UTC+00:00)

N. Korean satellite - Pass Details

Date: 20 September 2021
Orbit: 450 x 495 km, 97.3° (Epoch: 19 October)

Event Time Altitude Azimuth Distance (km) Brightness Sun altitude
Rises 10:36:38 0° 15° (NNE) 2,512 10.5 -10.7°
Reaches altitude 10° 10:38:41 10° 18° (NNE) 1,639 9.6 -10.2°
Maximum altitude 10:42:10 64° 100° (E) 533 7.0 -9.5°
Drops below altitude 10° 10:45:42 10° 183° (S) 1,655 9.2 -8.7°
Sets 10:47:47 0° 186° (S) 2,538 10.1 -8.3°
